Погода в Пархаре

Погода в Пархаре : погода сейчас, прогноз погоды и архив. Всё, что Вы хотите узнать о погоде в Пархаре!

Поиск расширенной информации на нашем сайте:

Другие новости

Новости СМИ2

Главная страница сайта

Новости сайта

03.07.2017

Напоминаем, что на нашем специализированном сайте Метеоцентр.Азия вы можете получить высокодетализированные автоматические прогнозы погоды по пунктам России, СНГ и мира в авиационном формате (включающие направление и скорость ветра, видимость, явления погоды, количество и форму облачности, нижнюю и верхнюю границу облачности).

Рекомендуем: http://profmoto.ru/ уход и натяжка цепи на квадроцикле.

Погода в Пархаре - сегодня

Время (UTC), дата Ветер
(°,м/с) 
Видим.   Явления Облачность Т
(°С)
Тd
(°С)
f(%) Тe
(°С)
Pmin
(гПа)
dP
(гПа)
Po
(мм)
O2
(г/м3)
Тmin Tmax R s Состояние
почвы
03 17.10.17 070 (В) 10 км    ясно 
+13.6 +3 49 +14  1007.8  -0.5  717  275  +11.9         
06 17.10.17 090 (В) 10 км    ясно 
+22.2 +4.8 32 +22  1006.4  0.1  717  266  +11.9         
09 17.10.17 130 (ЮВ) 10 км    ясно 
+27.7 +5.3 24 +28  1003.7  -1.6  716  261           
12 17.10.17 090 (В) 10 км    ясно 
+27.4 +6.8 27 +27  1001.9  -1.7  715  261           
15 17.10.17 тихо ()   н/о    ясно 
+18.9 +6.8 45 +19  1003  -0.3  714  268    +29.9       
18 17.10.17 360 (С) н/о    ясно 
+16.4 +6.7 53 +18  1002.5  -0.8  719  272    +29.9       
21 17.10.17 160 (Ю) н/о  туман на расстоянии  ?/?  
[]
+17.3 +7.8 54 +17  1007.2  4.7  717  270           
00 18.10.17 160 (Ю) н/о  туман  ?/?  
[]
+16.6 +8.4 58 +16  1011.2  3.6  720  272           
03 18.10.17 160 (Ю) 1000 м  туман  ?/?  
[]
+16.1 +8 59 +16  1014.4  2.9  722  273  +16         
06 18.10.17 090 (В) 1000 м  туман  ?/?  
[]
+16.3 +8.2 59 +17  1017.1  2.6  724  274  +16         
09 18.10.17 090 (В) 2000 м  мгла  10/10 1000 м 
[Sc]
+18.1 +9.5 57 +19  1018.5  1.6  718  269           
12 18.10.17 130 (ЮВ) 2000 м  мгла  10/10 1000 м 
[Sc]
+17.2 +9.2 59 +19  1019  0.4  718  270           
15 18.10.17 тихо ()   н/о  мгла  10/10 1000 м 
[Sc]
+16.1 +9.2 64 +17  1019.6  0.2  726  274    +19.2       
18 18.10.17 тихо ()   н/о  мгла  10/10 1000 м 
[Sc]
+14.6 +8 65 +15  1019.8  0.1  726  276    +19.2       
21 18.10.17 360 (С) н/о  мгла  4/0 средняя 
[Ac trans]
+13.5 +6.8 64 +15    -0.1  726  277           
00 19.10.17 тихо ()   н/о  мгла  ясно 
+12.2 +6.2 67 +12  1020.6  0.3  726  279           
03 19.10.17 020 (С) 4000 м  мгла  9/9 1000 м 
[Sc]
+12.4 +8.9 79 +14  1021.3  0.7  726  278  +11.9         
06 19.10.17 130 (ЮВ) 4000 м  мгла  6/6 1000 м 
[Sc]
+16.4 +2.9 40 +18  1022.5  1.8  728  276  +11.9         
09 19.10.17 160 (Ю) 4000 м  мгла  8/8 1000 м 
[Sc]
+18.4 +2.9 36 +19  1019.9  -1.9  726  274           
12 19.10.17 180 (Ю) 4000 м  мгла  8/8 1000 м 
[Sc]
+18.3 +3 36 +20  1019.2  -0.7  726  273           
15 19.10.17 тихо ()   н/о  мгла  8/8 1000 м 
[Sc]
+15.6 +5.1 50 +16  1018.8  -0.6  725  276    +19.5       
18 19.10.17 тихо ()   н/о    10/10 1000 м 
+13.4 +5.8 60 +13  1019.7  0.2  725  278    +19.5       
21 19.10.17 тихо ()   н/о  мгла  6/6 1000 м 
[Sc]
+12.6 +6.1 65 +13  1018.6  -1  725  278           
00 20.10.17 тихо ()   н/о  мгла  4/4 1000 м 
[Sc]
+12.1 +4.6 60 +12  1018.1  -0.9  724  278           
03 20.10.17 тихо ()   4000 м  мгла  5/5 1000 м 
[Sc]
+12.9 +5.9 62 +13  1017.2  -0.4  724  277  +10.7         
Время (UTC), дата Ветер
(°,м/с) 
Видим.   Явления Облачность Т
(°С)
Тd
(°С)
f(%) Тe
(°С)
Pmin
(гПа)
dP
(гПа)
Po
(мм)
O2
(г/м3)
Тmin Tmax R s Состояние
почвы

Для получения пояснительной информации подведите курсор к названию столбца.

ПОГОДА в Пархаре - архив

Всё, что Вы хотите узнать о погоде в Пархаре - удобно и подробно!

Выберите нужную дату (начиная с 1 января 2015* года) и нажмите кнопку "Найти".
Будут отображены архивные сводки погоды по пункту Пархар, начиная с указанной даты.


Отображать данные в формате CSV (для использования в таблицах Excel)


Внимание! Наш архив погоды предназначен исключительно для личного некоммерческого использования в познавательных целях. Если Вам необходимы официальные справки о состоянии погоды (для производственных, юридических, коммерческих и т.п. целей), обращайтесь в органы Росгидромета.

*Примечание: данная дата относится к архиву по метеостанциям СССР (Россия, СНГ, Балтия).
Архив по метеостанциям Зарубежной Европы и Азии (кроме Китая) хранится 10 дней, по другим регионам земного шара (Китай, Африка, Америка, Австралия, Океания) - 1 день.

Пархар - район местоположения метеостанции


Название, широта, долгота, высота метеостанции:
Пархар 37.5°ш. 69.4°д. 448 м над ур. моря [Таджикистан]

Дополнительная информация

В oтличие oт бoльшинства пoгoдных сайтoв мы публикуем пoдрoбную метеoинфoрмацию в детальнoм прoфессиoнальнoм фoрмате.

Характеристики температуры и влажнoсти вoздуха измеряются на высoте 2 м в тени вдали oт зданий и деревьев.
Скoрoсть ветра измеряется на высoте 10 м (на урoвне рoста челoвека скoрoсть ветра ниже в 1.5-2 раза). Если метеoстанция нахoдится в гoрoде или в лесу, тo скoрoсть ветра занижена на 2-4 м/с пo сравнению с oткрытым местoм. Скoрoсть ветра над акватoриями крупных рек и oзёр, а также на вершинах хoлмoв на 2-5 м/с выше, чем в oбычных услoвиях.
Атмoсфернoе давление в разных тoчках местнoсти мoжет значительнo oтличаться oт давления на метеoстанции, в зависимoсти oт услoвий рельефа (при пoдъёме на 10 м давление пoнижается примернo на 1 мм рт.ст.).